Ukiah, CA

12:41 PM PST on February 26, 2017 (GMT -0800)
Ukiah Municipal

Weather History for KUKI - January, 2013

Change the Weather History Date:

Saturday, January 26, 2013

  Actual Average Record
Temperature  
Mean Temperature 47 °F 47 °F  
Max Temperature 54 °F 58 °F 81 °F (1934)
Min Temperature 40 °F 37 °F 22 °F (1949)
Degree Days  
Heating Degree Days 18 18  
Month to date heating degree days 541 484  
Since 1 July heating degree days 1581 1714  
Cooling Degree Days 0 0  
Month to date cooling degree days 0 0  
Year to date cooling degree days 0 0  
Moisture  
Dew Point 39 °F    
Average Humidity 72    
Maximum Humidity 93    
Minimum Humidity 50    
Precipitation  
Precipitation T in 0.10 in 3.42 in (1983)
Month to date precipitation 1.25 6.45  
Year to date precipitation 1.25 6.45  
Since 1 July precipitation 23.95  
Snow  
Snow 0.00 in - - ()
Month to date snowfall 0.0  
Since 1 July snowfall 0.0  
Snow Depth 0.00 in    
Sea Level Pressure  
Sea Level Pressure 30.03 in    
Wind  
Wind Speed 6 mph (NNW)    
Max Wind Speed 20 mph    
Max Gust Speed 26 mph    
Visibility 10 miles    
Events      
T = Trace of Precipitation, MM = Missing Value Source: NWS Daily Summary

Daily Weather History Graph

Daily Weather History Graph

Search for Another Location

Airport or City:

Trip Planner

Search our weather history database for the weather conditions in past years. The results will help you decide how hot, cold, wet, or windy it might be!

Date:

Astronomy

Jan. 26, 2013 Rise Set
Actual Time 7:24 AM PST 5:27 PM PST
Civil Twilight 6:55 AM PST 5:55 PM PST
Nautical Twilight 6:23 AM PST 6:28 PM PST
Astronomical Twilight 5:51 AM PST 6:59 PM PST
Moon 5:27 PM PST 6:45 AM PST
Length of Visible Light 11h 00m
Length of Day
10h 03m
Full, 100% of the Moon is Illuminated
Jan 26
Full
Jan 26
Full
Feb 3
Last Quarter
Feb 9
New
Feb 17
First Quarter

Hourly Weather History & Observations

Time (PST) Temp. Windchill Dew Point Humidity Pressure Visibility Wind Dir Wind Speed Gust Speed Precip Events Conditions
12:36 AM 50.0 °F - 48.2 °F 94% 30.07 in 10.0 mi Calm Calm - N/A   Overcast
12:56 AM 50.0 °F - 48.0 °F 93% 30.05 in 10.0 mi Calm Calm - N/A   Overcast
1:03 AM 50.0 °F - 48.2 °F 94% 30.06 in 10.0 mi Calm Calm - N/A   Overcast
1:56 AM 50.0 °F - 46.9 °F 89% 30.04 in 10.0 mi Calm Calm - N/A   Overcast
2:56 AM 50.0 °F - 46.9 °F 89% 30.03 in 10.0 mi Calm Calm - N/A   Overcast
3:56 AM 50.0 °F - 46.9 °F 89% 30.01 in 10.0 mi Calm Calm - N/A   Mostly Cloudy
4:05 AM 48.2 °F - 46.4 °F 93% 30.02 in 10.0 mi South 3.5 mph - N/A   Scattered Clouds
4:56 AM 46.9 °F - 45.0 °F 93% 30.01 in 10.0 mi Calm Calm - N/A   Mostly Cloudy
5:56 AM 46.0 °F - 45.0 °F 96% 30.01 in 10.0 mi Calm Calm - N/A   Mostly Cloudy
6:56 AM 48.0 °F - 30.9 °F 52% 30.01 in 10.0 mi NNE 5.8 mph 18.4 mph N/A   Clear
7:56 AM 46.0 °F 41.4 °F 37.9 °F 73% 30.03 in 10.0 mi NNW 9.2 mph - N/A   Clear
8:56 AM 48.0 °F - 37.9 °F 68% 30.03 in 10.0 mi NNE 6.9 mph - N/A   Clear
9:56 AM 51.1 °F - 36.0 °F 56% 30.04 in 10.0 mi NW 9.2 mph - N/A   Clear
10:56 AM 52.0 °F - 36.0 °F 54% 30.03 in 10.0 mi NW 11.5 mph 18.4 mph N/A   Clear
11:56 AM 53.1 °F - 37.9 °F 57% 30.01 in 10.0 mi WNW 13.8 mph 20.7 mph N/A   Clear
12:56 PM 54.0 °F - 36.0 °F 51% 29.99 in 10.0 mi WNW 11.5 mph 23.0 mph N/A   Clear
1:56 PM 53.1 °F - 36.0 °F 52% 29.99 in 10.0 mi WNW 10.4 mph 23.0 mph N/A   Clear
2:56 PM 53.1 °F - 36.0 °F 52% 29.99 in 10.0 mi NW 16.1 mph - 0.00 in   Partly Cloudy
3:56 PM 52.0 °F - 35.1 °F 53% 29.99 in 10.0 mi WNW 9.2 mph - 0.00 in   Mostly Cloudy
4:56 PM 48.9 °F - 35.1 °F 59% 29.99 in 10.0 mi West 10.4 mph 17.3 mph N/A   Clear
5:56 PM 46.9 °F - 35.1 °F 63% 30.02 in 10.0 mi NW 10.4 mph 17.3 mph N/A   Clear
6:56 PM 46.0 °F 42.5 °F 37.0 °F 71% 30.04 in 10.0 mi NNE 6.9 mph - N/A   Partly Cloudy
7:56 PM 45.0 °F - 37.0 °F 74% 30.06 in 10.0 mi Calm Calm - N/A   Partly Cloudy
8:56 PM 44.1 °F 40.1 °F 37.0 °F 76% 30.06 in 10.0 mi NNE 6.9 mph - N/A   Scattered Clouds
9:03 PM 44.6 °F 41.4 °F 37.4 °F 76% 30.07 in 10.0 mi NNE 5.8 mph - N/A   Mostly Cloudy
9:24 PM 44.6 °F 42.2 °F 35.6 °F 71% 30.07 in 10.0 mi NNW 4.6 mph - N/A   Scattered Clouds
9:56 PM 43.0 °F 41.3 °F 36.0 °F 76% 30.07 in 10.0 mi North 3.5 mph - N/A   Clear
10:56 PM 41.0 °F 39.0 °F 36.0 °F 82% 30.09 in 10.0 mi North 3.5 mph - N/A   Clear
11:56 PM 39.9 °F 36.7 °F 35.1 °F 83% 30.09 in 10.0 mi NNW 4.6 mph - N/A   Clear